Location: *
(6.0000°S, 32.3997°W)
Time: 13:54:34
(UTC+00:00)

Atlas 2A Centaur Rocket - Pass Details

Date: 01 April 2020
Orbit: 284 x 19424 km, 27.0° (Epoch: 04 June)

Event Time Altitude Azimuth Distance (km) Brightness Sun altitude
Rises 20:58:41 0° 319° (NW) 2,534 5.9 -11.8°
Reaches altitude 10° 21:01:42 10° 350° (N) 1,181 3.7 -12.5°
Maximum altitude 21:02:56 14° 26° (NNE) 937 2.8 -12.8°
Enters shadow 21:03:09 13° 34° (NE) 940 2.7 -12.9°
